Weather in Baranivka

Ukraine / Zhytomyr Region     50°17′37″N   27°39′59″E
temp.,
°C
wind,
m/s
gust,
m/s
humid.,
%
clouds,
%
prec.,
mm/h
press.,
hPa
HPBL,
m
17 october, sun
sun1700:00+4nw35945 0.0 102283
03:00+5wnw238392 0.0 102164
06:00+8nw3564100 0.0 1021160
09:00+8nw356299 0.0 1021516
12:00+10wnw345131 0.0 10211261
15:00+11wnw454614 0.0 10201391
18:00+7wnw236224 0.0 102051
21:00+5w2472100 0.0 102165
18 october, mon
mon1800:00+4w2272100 0.0 102140
03:00+4wsw3473100 0.0 102167
06:00+5wsw3671100 0.0 1020144
09:00+6w3965100 0.0 1021292
12:00+9wnw4757100 0.0 1021824
15:00+10wnw5759100 0.0 10201377
18:00+8w497096 0.0 1020789
21:00+6w411828 0.0 1020290
19 october, tue
tue1900:00+7w51275100 0.0 1020471
03:00+5n81293100 1.7 1021986
06:00+2nw38979 0.6 1024220
09:00+3nw39905 0.6 1026263
12:00+8nw575225 0.0 1027961
15:00+9nw57405 0.0 10271271
18:00+5nw34539 0.0 102752
21:00+3nw226695 0.0 102914
20 october, wed
wed2000:00+2wsw117164 0.0 102910
03:00+1ssw22725 0.0 102911
06:000s347077 0.0 102857
09:00+2s3761100 0.0 1028168
12:00+9s474673 0.0 1025425
15:00+13ssw684998 0.0 1022816
18:00+12ssw5115898 0.0 1020439
21:00+11s5145991 0.0 1019497
21 october, thu
thu2100:00+9ssw5156171 0.0 1017385
03:00+8ssw41169100 0.0 1016256
06:00+7s41179100 0.0 1015239
09:00+8ssw51176100 0.0 1014286
12:00+14ssw6105295 0.0 1012428
15:00+17sw61139100 0.0 10101073
18:00+15sw4853100 0.0 1010235
21:00+13wsw4126698 0.0 1011382